This is the latest recevied weather packets stored in our database for station/object KG7QQL. If no packets are shown the sender has not sent any weather packets the latest 10 day(s).
| Time | Temp. | Humidity | Pressure | Rain* | Wind** | Luminosity | Snow |
|---|---|---|---|---|---|---|---|
| 1777934644 | 25.56° C | 43% | - | 0 mm | - | - | - |
| 1777934342 | 25.56° C | 43% | - | 0 mm | - | - | - |
| 1777934037 | 25° C | 42% | - | 0 mm | - | - | - |
| 1777933733 | 26.11° C | 45% | - | 0 mm | - | - | - |
| 1777933430 | 25.56° C | 42% | - | 0 mm | - | - | - |
| 1777933129 | 25° C | 44% | - | 0 mm | - | - | - |
| 1777932825 | 25.56° C | 45% | - | 0 mm | - | - | - |
| 1777932522 | 25° C | 48% | - | 0 mm | - | - | - |
| 1777932219 | 25° C | 45% | - | 0 mm | - | - | - |
| 1777931916 | 25° C | 46% | - | 0 mm | - | - | - |
| 1777931612 | 24.44° C | 50% | - | 0 mm | - | - | - |
| 1777931308 | 25° C | 49% | - | 0 mm | - | - | - |
| 1777931006 | 25.56° C | 49% | - | 0 mm | - | - | - |
| 1777930702 | 25° C | 49% | - | 0 mm | - | - | - |
| 1777930398 | 25.56° C | 50% | - | 0 mm | - | - | - |
| 1777930096 | 24.44° C | 51% | - | 0 mm | - | - | - |
| 1777929792 | 24.44° C | 52% | - | 0 mm | - | - | - |
| 1777929490 | 25° C | 51% | - | 0 mm | - | - | - |
| 1777929185 | 24.44° C | 51% | - | 0 mm | - | - | - |
| 1777928883 | 25° C | 51% | - | 0 mm | - | - | - |
| 1777928580 | 24.44° C | 54% | - | 0 mm | - | - | - |
| 1777928277 | 24.44° C | 53% | - | 0 mm | - | - | - |
| 1777927975 | 23.89° C | 53% | - | 0 mm | - | - | - |
| 1777927673 | 24.44° C | 54% | - | 0 mm | - | - | - |
| 1777927371 | 23.89° C | 54% | - | 0 mm | - | - | - |
* Rain latest hour (hover to see other rain measurements)
** Current wind speed in m/s (hover to see current wind gust speed)